TimeCST,TemperatureF,Dew PointF,Humidity,Sea Level PressureIn,VisibilityMPH,Wind Direction,Wind SpeedMPH,Gust SpeedMPH,PrecipitationIn,Events,Conditions,WindDirDegrees,DateUTC
12:53 AM,28.0,15.1,58,30.18,10.0,South,9.2,-,N/A,,Scattered Clouds,190,2013-02-02 06:53:00
1:53 AM,28.9,16.0,58,30.16,10.0,SSW,10.4,-,N/A,,Mostly Cloudy,210,2013-02-02 07:53:00
3:53 AM,30.0,17.1,59,30.14,10.0,SW,10.4,-,N/A,,Overcast,220,2013-02-02 09:53:00
4:53 AM,32.0,18.0,56,30.14,10.0,WSW,10.4,18.4,N/A,,Overcast,240,2013-02-02 10:53:00
6:53 AM,30.9,19.0,61,30.17,10.0,WNW,10.4,-,N/A,,Scattered Clouds,290,2013-02-02 12:53:00
7:53 AM,30.0,19.9,66,30.18,10.0,West,9.2,-,N/A,,Clear,280,2013-02-02 13:53:00
8:53 AM,32.0,21.0,64,30.20,10.0,West,10.4,-,N/A,,Clear,280,2013-02-02 14:53:00
9:53 AM,34.0,21.9,61,30.21,10.0,NW,8.1,-,N/A,,Clear,310,2013-02-02 15:53:00
10:53 AM,36.0,23.0,59,30.22,10.0,WNW,8.1,-,N/A,,Overcast,300,2013-02-02 16:53:00
11:53 AM,37.9,25.0,60,30.22,10.0,West,8.1,-,N/A,,Overcast,280,2013-02-02 17:53:00
12:53 PM,37.9,25.0,60,30.20,10.0,WNW,10.4,-,N/A,,Overcast,300,2013-02-02 18:53:00
1:53 PM,39.9,26.1,58,30.18,10.0,WNW,10.4,-,N/A,,Overcast,300,2013-02-02 19:53:00
2:53 PM,41.0,27.0,57,30.18,10.0,WNW,15.0,-,N/A,,Scattered Clouds,290,2013-02-02 20:53:00
3:53 PM,41.0,28.0,60,30.18,10.0,NW,6.9,-,N/A,,Overcast,320,2013-02-02 21:53:00
4:53 PM,39.0,28.0,65,30.19,10.0,NNW,8.1,-,N/A,,Overcast,330,2013-02-02 22:53:00
5:53 PM,36.0,27.0,70,30.17,10.0,Calm,Calm,-,N/A,,Partly Cloudy,0,2013-02-02 23:53:00
6:53 PM,34.0,27.0,75,30.16,10.0,Calm,Calm,-,N/A,,Clear,0,2013-02-03 00:53:00
7:53 PM,33.1,27.0,78,30.14,10.0,South,5.8,-,N/A,,Partly Cloudy,180,2013-02-03 01:53:00
8:53 PM,33.1,27.0,78,30.11,10.0,SSW,8.1,-,N/A,,Partly Cloudy,200,2013-02-03 02:53:00
9:53 PM,41.0,30.9,67,30.08,10.0,WSW,6.9,17.3,0.00,,Overcast,240,2013-02-03 03:53:00
10:53 PM,45.0,30.9,58,30.09,10.0,WNW,19.6,27.6,0.00,,Overcast,290,2013-02-03 04:53:00
11:53 PM,41.0,30.9,67,30.11,10.0,WNW,10.4,-,N/A,,Clear,290,2013-02-03 05:53:00